RH
22 30 44 33 29 25 28 34 36 30 24 25 28 29 24 21 24 23 25 28 28 36 45 61 56 60 72 79 80 80 85 90 91 94 93 96 95 96 96 98 95 94 93 92
25 24 24 28 28 30 31 31 31 25 24 25 28 27 22 23 22 26 26 26 40 59 69 61 60 62 68 78 80 82 80 89 91 95 95 96 97 97 98 97 96 95 94 94
19 16 16 26 29 33 31 29 28 27 29 28 32 32 29 22 27 25 29 28 40 46 70 63 60 68 78 80 84 82 84 89 92 90 95 96 96 97 97 97 96 96 96 95
16 11 17 21 29 21 26 21 21 25 34 41 34 49 36 29 26 25 21 24 31 58 65 59 61 77 73 78 84 82 88 91 87 90 92 91 97 98 98 98 97 97 94 92
23 15 15 20 19 18 22 21 28 31 41 46 36 46 37 34 29 27 23 24 47 62 63 63 64 64 67 77 84 86 90 91 90 90 91 95 94 98 97 97 95 96 96 94
16 14 12 15 17 18 17 25 33 35 40 48 33 43 41 32 28 25 25 44 54 62 69 69 64 66 72 79 87 92 92 91 90 91 90 90 90 91 94 95 97 98 99 98
24 19 17 13 16 18 19 30 46 59 56 56 33 43 32 32 28 26 23 43 60 68 70 64 61 71 74 84 90 89 90 90 91 91 90 90 89 90 91 96 99 98 99 99
30 30 19 14 16 18 19 24 50 58 64 48 35 44 34 27 24 26 25 48 59 71 68 60 64 67 68 80 89 86 89 88 91 90 89 90 90 95 96 96 98 98 99 98
29 24 19 14 14 13 19 26 22 37 48 47 43 35 28 32 31 37 52 55 64 69 69 65 66 70 72 81 87 87 84 85 90 89 91 89 91 92 94 94 96 98 97 98
34 31 19 15 14 14 18 17 25 39 54 56 45 40 37 32 34 52 56 61 64 74 73 66 68 70 71 77 83 89 82 79 87 88 90 89 90 92 94 94 95 94 96 96
34 36 34 22 22 19 21 21 29 22 36 55 55 46 38 28 38 45 51 57 63 69 67 64 64 63 69 80 81 88 82 82 86 88 87 91 91 92 94 95 97 95 96 97
60 38 40 27 22 16 16 18 21 31 46 36 45 37 30 30 32 38 43 52 62 65 63 62 64 64 76 76 79 86 81 81 79 84 84 91 93 93 94 94 96 95 96 97
66 62 44 36 34 26 19 17 16 25 47 46 36 33 27 38 37 40 48 52 58 64 68 68 67 61 67 72 79 78 78 76 76 75 89 93 93 94 93 94 95 96 97 97
59 82 51 34 32 27 27 18 22 19 24 27 33 33 38 43 42 50 50 55 60 58 58 60 62 60 61 64 72 72 75 70 75 73 90 90 90 92 93 93 94 94 94 96
69 84 69 47 23 22 28 20 17 24 22 28 25 28 31 42 45 46 46 56 57 58 56 56 58 62 63 69 71 69 71 70 74 76 86 82 86 88 93 93 94 94 93 94
70 77 72 60 31 22 22 26 16 17 19 24 31 28 28 35 42 50 48 48 50 52 50 50 50 56 60 58 64 65 68 70 70 77 80 79 80 84 90 93 93 94 95 96
64 81 58 76 35 27 31 21 23 21 22 21 31 28 33 38 40 45 49 43 44 46 46 47 47 49 52 54 55 67 68 70 69 71 76 77 80 83 83 93 92 93 93 88
61 71 71 80 54 46 24 18 16 26 22 27 27 24 28 28 34 37 38 40 40 41 42 44 44 44 46 53 56 66 64 65 64 69 74 72 77 78 82 89 92 92 93 94
56 66 77 97 71 35 26 30 18 28 26 27 23 25 26 29 37 48 38 35 36 37 38 40 41 41 46 53 57 61 60 63 61 65 70 67 76 81 86 92 92 92 94 93
54 54 64 92 88 50 42 40 25 26 26 29 28 29 29 31 31 38 43 35 35 34 36 38 41 41 45 48 57 57 58 62 60 60 61 65 75 80 84 93 92 92 92 90
75 80 84 74 90 68 68 61 49 32 42 75 38 28 33 26 22 26 37 34 32 33 37 39 42 40 42 49 53 53 54 58 54 53 57 64 77 81 84 93 93 93 93 93
98 97 86 74 90 71 61 63 66 78 72 74 62 33 29 23 24 32 36 35 33 36 42 39 40 38 41 47 49 50 50 47 50 53 56 62 76 67 80 91 95 94 94 93
96 98 98 95 94 68 64 67 61 60 60 71 82 75 38 27 27 32 38 36 32 32 34 37 37 41 43 46 43 47 44 44 49 53 58 63 71 71 85 88 96 97 95 93
92 84 95 91 77 68 64 57 52 56 57 54 66 78 60 29 30 30 35 35 33 32 36 38 37 40 45 44 41 39 42 38 45 50 56 62 64 80 92 81 86 90 96 97
95 90 93 90 78 67 61 54 55 58 50 50 54 71 72 35 32 31 34 34 33 32 35 38 37 39 41 42 41 45 41 38 44 47 50 57 59 69 82 80 83 82 88 84
91 88 94 96 74 84 73 60 56 58 54 50 54 77 70 58 33 41 34 34 34 34 36 37 37 38 39 39 40 46 41 38 42 47 48 52 58 68 73 83 94 87 95 96
Wind_Speed
9 8 20 18 22 17 8 7 9 8 4 7 8 9 15 14 7 14 15 11 12 7 4 8 12 15 13 8 9 8 8 5 3 1 1 1 2 2 2 3 5 4 4 4
8 32 19 16 16 16 9 9 17 19 8 7 9 14 16 12 13 9 13 14 6 5 4 9 13 13 13 11 8 8 7 6 3 2 2 1 1 2 3 2 3 4 4 5
29 18 16 20 16 18 18 18 15 20 2 6 8 14 12 16 5 9 9 8 6 11 11 11 14 14 10 9 9 8 7 7 4 3 2 1 1 2 3 2 1 2 3 4
19 21 23 18 25 17 19 16 21 18 5 6 4 7 5 8 11 7 11 7 10 7 9 13 13 9 11 8 7 8 7 7 4 4 3 2 1 0 2 2 1 3 4 3
12 19 24 22 20 22 18 11 9 10 6 4 9 3 8 4 8 11 11 6 6 8 12 13 14 12 7 8 8 7 7 5 4 3 4 3 1 0 2 2 3 3 3 2
10 9 26 26 14 18 7 4 2 4 4 12 19 7 6 7 9 7 4 1 7 10 11 9 9 9 7 6 7 7 7 5 5 4 4 4 3 0 2 2 2 3 2 1
6 12 3 7 15 6 8 8 2 3 5 7 7 6 16 7 9 10 9 7 8 9 13 15 15 10 8 8 8 7 7 5 5 5 4 4 3 1 1 1 2 2 1 1
14 12 22 12 9 13 15 15 8 7 5 5 7 8 10 8 10 8 9 8 10 11 11 13 13 10 10 9 8 7 7 5 6 5 4 2 2 2 1 1 1 1 1 2
12 15 3 17 6 15 10 18 12 3 2 2 5 8 10 2 5 6 7 10 10 12 13 15 11 10 10 9 9 9 7 5 6 5 4 2 0 1 2 2 2 0 1 1
3 5 9 19 19 18 11 11 9 5 5 5 5 4 7 4 6 3 7 8 9 8 10 12 10 10 8 8 7 7 7 8 6 5 3 2 1 1 1 2 3 2 2 2
4 2 3 6 17 21 8 8 5 8 6 6 2 7 8 9 9 11 9 9 12 13 14 13 11 9 9 7 7 7 7 7 6 4 3 4 2 3 2 3 3 1 2 4
6 5 6 13 2 20 13 12 11 10 6 6 4 9 5 9 10 14 11 10 8 9 12 11 10 9 8 8 7 7 7 7 6 5 5 5 3 4 3 3 3 3 3 4
9 6 5 7 2 4 23 19 17 4 4 7 10 10 3 4 6 7 11 10 9 11 10 8 8 10 10 8 7 7 7 7 6 5 6 5 3 4 4 3 3 3 4 5
7 5 11 13 3 5 6 22 11 17 13 9 9 3 3 5 9 6 7 7 11 12 13 13 10 10 10 9 8 7 7 7 7 6 6 5 4 4 3 3 3 3 4 5
4 5 7 16 22 9 3 12 21 20 13 16 11 9 9 11 10 15 11 9 11 12 13 14 13 11 10 8 7 7 7 7 6 6 6 5 4 4 4 4 4 4 6 5
4 5 7 8 14 21 16 4 22 20 16 11 8 9 9 9 6 8 13 14 15 16 16 15 13 12 13 13 11 9 8 7 7 7 7 5 5 4 5 5 5 5 5 5
6 3 11 7 8 11 16 28 9 15 17 17 11 10 8 5 13 14 11 16 18 17 18 17 16 16 14 13 12 10 9 7 8 7 6 6 6 5 6 5 5 5 5 5
7 2 3 7 3 8 17 13 16 11 12 11 4 10 14 14 17 16 16 20 16 16 16 16 14 13 13 11 10 8 9 10 9 7 7 6 6 6 6 6 6 5 4 5
18 5 3 3 4 7 5 3 14 10 12 10 12 8 12 8 8 2 10 17 21 21 19 16 15 15 11 13 11 11 10 10 10 8 8 7 7 7 6 6 6 3 5 4
15 12 6 2 4 6 5 14 1 6 13 8 9 10 10 10 10 7 12 14 13 12 13 15 14 11 13 12 12 13 11 12 12 10 10 8 7 9 7 7 6 3 3 5
4 4 9 5 4 7 17 22 11 13 4 14 7 11 8 11 10 12 16 16 17 17 15 13 15 15 16 13 14 14 13 14 14 11 8 8 7 9 8 7 4 5 5 6
3 3 5 5 5 5 21 9 8 9 13 11 12 7 11 12 9 7 17 17 16 14 12 14 14 14 14 15 15 13 15 14 12 11 10 8 8 7 7 9 5 6 7 6
2 1 3 5 2 2 6 3 7 9 13 12 12 13 8 11 10 11 11 14 16 18 17 16 15 13 13 15 17 16 13 13 12 12 10 8 7 6 8 8 7 5 6 6
3 4 4 7 3 9 13 10 13 13 12 16 12 12 9 9 9 12 13 14 14 14 14 14 15 15 14 15 16 16 14 14 14 13 11 8 10 7 6 5 7 7 6 5
3 4 2 6 11 13 3 14 16 19 17 16 15 11 9 7 7 13 13 15 15 16 14 16 17 16 17 16 15 12 14 14 13 12 10 10 9 10 8 7 8 8 7 9
3 5 1 3 6 6 12 15 21 18 20 20 18 15 13 9 5 2 13 15 15 15 14 14 16 15 16 16 15 13 16 16 15 12 9 9 9 8 8 7 3 6 2 10
Wind_Direction
175 194 209 191 206 215 222 223 249 276 241 249 244 262 275 279 289 270 268 251 238 233 182 150 149 145 141 145 143 149 147 157 146 127 199 268 268 278 268 235 249 245 223 209
170 227 199 205 207 216 223 242 258 280 274 227 271 261 268 282 275 235 248 252 167 161 169 149 145 146 151 151 153 146 150 162 160 155 207 198 237 279 267 269 279 248 226 213
202 230 203 202 204 211 222 228 246 247 359 292 303 286 280 283 287 261 250 237 188 193 167 152 152 146 146 151 155 150 158 160 156 176 108 5 350 349 3 331 297 323 269 229
232 227 190 202 215 197 222 215 239 257 277 253 130 286 302 287 300 293 274 252 235 161 144 153 147 146 158 157 137 145 152 154 167 152 101 113 152 354 260 271 304 321 319 213
210 184 212 213 209 199 224 211 224 244 249 293 254 275 268 241 281 271 263 274 225 151 148 152 147 151 153 140 149 150 151 167 152 143 134 118 99 245 299 315 327 322 308 269
216 206 200 218 199 201 167 150 264 274 269 261 263 186 215 229 222 252 240 51 136 141 127 122 133 142 139 133 137 145 155 168 170 160 144 128 119 78 327 340 345 336 321 290
176 225 211 169 204 162 169 105 277 288 216 224 239 191 245 248 236 229 245 179 144 130 140 148 157 152 143 151 153 159 168 161 179 172 150 141 157 176 281 349 321 352 311 180
199 210 210 171 181 184 199 177 165 204 197 190 169 234 245 223 266 232 242 139 141 149 151 158 155 156 157 160 164 170 170 158 184 173 161 156 170 238 285 326 331 21 78 145
196 231 173 185 167 160 192 206 181 14 312 72 220 285 329 316 243 200 149 133 159 160 155 155 160 158 160 162 173 175 165 179 179 188 159 175 309 267 296 2 27 353 85 155
268 205 214 206 192 197 165 152 175 199 209 207 267 255 219 225 261 146 148 164 154 142 143 157 164 162 169 170 172 171 168 180 183 174 186 161 265 22 34 33 53 36 49 111
203 148 278 157 204 185 173 197 160 151 213 167 184 257 219 206 190 190 196 179 164 166 160 168 168 166 171 159 162 172 169 173 177 175 170 135 171 95 73 49 36 57 14 103
288 225 215 227 246 194 198 195 204 181 204 227 159 259 226 213 202 181 182 174 173 157 161 166 162 153 160 169 166 172 174 176 182 178 146 136 157 114 84 55 39 40 45 75
331 283 261 338 348 181 198 202 205 166 94 193 184 254 174 171 163 204 157 169 162 152 150 149 144 164 173 173 168 165 174 179 164 160 139 145 148 113 105 80 69 56 64 91
338 282 249 215 226 142 185 198 171 187 217 217 222 183 196 185 155 164 168 170 159 163 166 163 160 175 176 177 168 165 175 173 160 162 144 150 152 134 141 89 69 67 64 84
39 276 307 277 259 279 200 190 198 205 198 197 219 192 210 194 184 182 182 140 149 163 171 176 171 176 176 170 166 167 170 164 160 157 148 167 140 134 120 103 82 73 72 80
3 281 323 267 244 241 248 248 201 212 213 226 173 220 206 202 124 121 176 166 174 180 179 180 176 173 180 180 177 167 169 167 159 159 163 160 139 130 123 125 117 88 88 85
296 333 351 280 244 242 257 239 220 211 202 201 181 216 157 144 168 176 177 184 183 181 180 181 182 180 182 184 175 170 168 156 162 161 159 164 145 136 130 129 109 100 81 90
239 113 235 277 274 191 247 223 217 209 215 212 146 178 175 174 192 185 188 183 183 182 184 187 184 180 183 177 174 147 147 164 166 164 159 163 148 137 138 135 125 106 92 93
219 163 258 252 260 278 246 229 190 167 248 212 206 201 193 167 120 247 194 188 186 185 186 184 180 178 164 169 164 153 153 161 167 172 167 168 149 135 140 137 137 117 113 95
221 191 189 217 251 220 32 330 250 117 237 211 180 191 152 138 162 235 183 193 196 193 176 175 174 163 161 172 159 155 161 162 178 178 177 164 153 144 149 148 154 126 124 117
114 115 220 265 290 288 345 315 302 174 247 318 266 183 157 174 185 199 180 188 185 177 171 165 163 169 175 159 160 168 165 178 183 175 168 159 159 153 152 146 144 134 128 118
29 323 185 195 240 268 353 17 42 309 311 306 312 247 182 190 185 162 175 182 175 163 145 162 168 174 166 164 164 171 182 179 167 164 167 168 160 160 153 149 145 142 135 130
218 170 317 280 308 11 337 334 303 314 315 312 311 302 272 201 176 176 177 175 180 174 170 168 168 161 165 169 172 177 182 163 162 161 169 167 162 158 157 154 153 144 149 143
210 247 229 313 28 311 316 322 334 323 322 314 305 291 271 212 175 179 169 174 177 171 168 163 156 165 169 175 180 185 164 165 162 168 170 163 166 161 158 158 162 160 164 158
217 231 283 270 287 312 1 324 325 319 320 334 335 321 325 222 202 176 175 175 178 176 160 165 169 173 176 172 179 163 162 166 167 170 167 170 176 178 174 181 175 176 190 176
189 207 181 263 314 273 275 300 314 322 324 336 338 335 355 11 160 266 175 176 170 170 166 170 171 171 169 173 173 167 166 171 168 172 171 173 171 177 180 174 150 50 159 192